Weather reports worldwide

Advertisment
Rheinstetten, Germany (10731): temperature & dewpoint: 18.06.2018 16:00:00 - 24.06.2018 16:00:00 (CEST)Rheinstetten, Germany (10731): temperature 5cm & temperature -5cm: 18.06.2018 16:00:00 - 24.06.2018 16:00:00 (CEST)Rheinstetten, Germany (10731): temperature -20cm & temperature -100cm: 18.06.2018 16:00:00 - 24.06.2018 16:00:00 (CEST)Rheinstetten, Germany (10731): wind speed & gusts: 18.06.2018 16:00:00 - 24.06.2018 16:00:00 (CEST)Rheinstetten, Germany (10731): wind direction: 18.06.2018 16:00:00 - 24.06.2018 16:00:00 (CEST)Rheinstetten, Germany (10731): reduced air pressure: 18.06.2018 16:00:00 - 24.06.2018 16:00:00 (CEST)Rheinstetten, Germany (10731): visibility: 18.06.2018 16:00:00 - 24.06.2018 16:00:00 (CEST)Rheinstetten, Germany (10731): sunshine duration: 18.06.2018 16:00:00 - 24.06.2018 16:00:00 (CEST)Rheinstetten, Germany (10731): precipitation: 18.06.2018 16:00:00 - 24.06.2018 16:00:00 (CEST)
Date & Time tt [°C] td [°C] tt 5cm [°C] tt -5cm [°C] tt -20cm [°C] tt -100cm [°C] ff [km/h] ff [kn] fx [km/h] fx [kn] dd ppp [hPa] vv [km] sd [min] rr [mm]
24.06.2018 16:00:00 21,3 7,6 27,2 33,9 25,7 21,4 5 3 23 12 NNE 1020,7 32 38 0,0
24.06.2018 15:00:00 20,9 7,0 25,9 33,6 24,6 21,4 8 5 22 12 N 1021,0 32 47 0,0
24.06.2018 14:00:00 20,6 6,4 27,0 32,0 23,5 21,4 9 5 23 12 N 1021,4 37 43 0,0
24.06.2018 13:00:00 19,2 7,4 23,5 29,2 22,6 21,4 8 4 20 11 NW 1021,8 44 32 0,0
24.06.2018 12:00:00 18,8 8,5 23,0 25,8 21,9 21,5 9 5 20 11 NNE 1022,2 40 4 0,0
24.06.2018 11:00:00 18,1 9,4 22,9 23,9 21,3 21,5 11 6 20 11 NNW 1022,2 32 18 0,0
24.06.2018 10:00:00 16,4 9,2 18,2 21,7 20,9 21,5 5 3 12 6 NNE 1022,4 39 0 0,0
24.06.2018 09:00:00 15,6 9,7 17,5 20,3 20,6 21,5 5 3 9 5 ENE 1022,7 34 14 0,0
24.06.2018 08:00:00 13,8 9,9 14,6 17,9 20,7 21,5 4 2 6 3 WNW 1023,0 27 8 0,0
24.06.2018 07:00:00 11,8 9,2 12,5 16,8 21,0 21,5 4 2 5 3 SE 1022,9 32 2 0,0
24.06.2018 06:00:00 9,3 8,0 8,5 16,3 21,5 21,5 0 0 3 2 N 1023,1 32 0 0,0
24.06.2018 05:00:00 9,6 8,2 8,4 17,0 22,0 21,5 3 2 4 2 WSW 1023,1 27 0 0,0
24.06.2018 04:00:00 10,4 8,7 10,0 17,8 22,5 21,5 2 1 5 3 SSE 1023,4 36 0 0,0
24.06.2018 03:00:00 11,6 8,7 10,7 18,6 23,0 21,5 4 2 7 4 SE 1023,8 41 0 0,0
24.06.2018 02:00:00 12,4 9,2 12,2 19,3 23,6 21,5 5 3 9 5 NE 1024,1 42 0 0,0
24.06.2018 01:00:00 13,7 8,6 12,6 20,2 24,2 21,5 4 2 12 7 ENE 1024,4 45 0 0,0
24.06.2018 00:00:00 15,1 8,3 14,2 21,1 24,8 21,5 6 4 12 6 N 1024,5 49 0 0,0
23.06.2018 23:00:00 14,5 8,1 12,2 21,9 25,6 21,5 3 2 10 5 NNE 1024,6 68 0 0,0
23.06.2018 22:00:00 15,8 7,5 14,3 23,3 26,4 21,6 8 4 28 15 NE 1024,3 59 1 0,0
23.06.2018 21:00:00 17,3 6,7 17,0 25,5 27,1 21,6 19 11 31 17 NNE 1024,1 70 8 0,0
23.06.2018 20:00:00 18,4 8,2 19,0 28,0 27,5 21,6 18 10 34 19 NNE 1023,7 63 14 0,0
23.06.2018 19:00:00 20,5 7,7 24,0 32,1 27,4 21,7 12 6 28 15 N 1023,4 50 60 0,0
23.06.2018 18:00:00 21,8 6,8 26,0 32,8 27,1 21,7 11 6 26 14 N 1023,6 53 43 0,0
23.06.2018 17:00:00 21,2 6,0 25,7 35,2 26,3 21,7 10 5 27 14 N 1024,1 34 59 0,0
23.06.2018 16:00:00 20,6 6,0 25,7 34,8 25,3 21,7 11 6 23 12 W 1024,6 26 60 0,0
23.06.2018 15:00:00 19,8 5,4 26,2 33,5 24,1 21,7 9 5 21 12 N 1025,1 30 58 0,0
23.06.2018 14:00:00 18,6 6,2 24,5 31,5 22,9 21,8 8 5 18 10 NW 1025,9 33 56 0,0
23.06.2018 13:00:00 17,1 6,2 23,4 28,6 21,9 21,8 8 4 19 10 NW 1026,5 17 41 0,0
23.06.2018 12:00:00 16,8 6,1 24,1 25,7 21,0 21,8 7 4 16 9 NNE 1026,7 26 28 0,0
23.06.2018 11:00:00 15,2 6,7 19,4 23,3 20,2 21,8 10 5 19 10 N 1027,0 26 37 0,0
23.06.2018 10:00:00 15,4 7,1 19,4 20,7 19,6 21,8 12 7 18 10 NE 1027,0 24 39 0,0
23.06.2018 09:00:00 13,8 7,4 15,9 18,6 19,3 21,8 10 5 16 8 NE 1027,3 23 58 0,0
23.06.2018 08:00:00 12,9 8,2 14,1 15,8 19,3 21,8 3 1 6 3 SE 1027,3 38 60 0,0
23.06.2018 07:00:00 8,6 6,8 8,7 14,0 19,7 21,8 3 2 4 2 SE 1027,5 31 18 0,0
23.06.2018 06:00:00 6,4 5,5 5,7 13,9 20,2 21,8 3 2 5 3 SE 1027,2 27 0 0,0
23.06.2018 05:00:00 6,6 5,7 5,1 14,4 20,7 21,9 3 1 4 2 S 1027,2 24 0 0,0
23.06.2018 04:00:00 7,2 6,2 4,9 15,1 21,3 21,9 3 2 5 3 SSE 1027,0 26 0 0,0
23.06.2018 03:00:00 8,0 6,6 6,3 15,9 21,9 21,9 4 2 8 5 S 1026,9 30 0 0,0
23.06.2018 02:00:00 8,1 6,6 6,6 16,8 22,6 21,9 2 1 5 3 SSE 1027,2 32 0 0,0
23.06.2018 01:00:00 9,2 7,5 8,0 17,9 23,2 21,9 2 1 6 4 S 1027,1 38 0 0,0
23.06.2018 00:00:00 10,1 7,9 8,9 19,1 23,9 21,9 5 3 6 4 SW 1027,2 36 0 0,0
22.06.2018 23:00:00 11,9 8,0 10,7 20,6 24,6 21,9 1 1 8 4 N 1026,8 51 0 0,0
22.06.2018 22:00:00 14,8 6,7 11,4 22,2 25,1 21,9 5 3 14 8 WNW 1026,1 63 0 0,0
22.06.2018 21:00:00 17,0 5,8 16,2 24,7 25,5 22,0 8 4 21 12 NW 1025,7 70 46 0,0
22.06.2018 20:00:00 18,0 5,0 19,5 26,5 25,5 22,0 12 7 22 12 NW 1025,4 55 43 0,0
22.06.2018 19:00:00 19,0 5,2 22,9 28,0 25,3 22,0 12 6 26 14 WNW 1025,2 50 54 0,0
22.06.2018 18:00:00 18,1 5,4 19,3 26,8 25,3 22,0 14 8 24 13 NNW 1025,2 70 7 0,0
22.06.2018 17:00:00 18,1 6,1 20,0 27,8 25,1 22,0 12 7 27 14 WNW 1025,3 70 14 0,0
22.06.2018 16:00:00 18,5 5,9 21,5 28,4 24,7 22,0 16 9 24 13 W 1025,2 46 16 0,0
22.06.2018 15:00:00 17,7 5,8 19,7 27,0 24,4 22,0 12 7 24 13 NW 1025,1 70 3 0,0
22.06.2018 14:00:00 17,7 5,0 23,0 28,1 23,9 22,0 12 6 21 11 WNW 1025,2 67 18 0,0
22.06.2018 13:00:00 16,7 4,6 19,0 26,6 23,3 22,0 11 6 26 14 SW 1025,5 63 9 0,0
22.06.2018 12:00:00 16,6 3,8 23,1 27,6 22,5 22,0 13 7 25 14 W 1025,6 28 46 0,0
22.06.2018 11:00:00 14,9 4,2 16,9 23,8 21,9 22,0 14 8 23 13 W 1026,1 65 23 0,0
22.06.2018 10:00:00 14,6 4,0 19,3 22,8 21,3 21,9 10 5 21 11 W 1025,8 39 60 0,0
22.06.2018 09:00:00 13,5 4,5 16,0 19,6 21,1 21,9 13 7 21 11 WSW 1026,0 33 60 0,0
22.06.2018 08:00:00 12,6 4,9 14,0 17,2 21,2 21,9 10 6 15 8 W 1025,8 29 60 0,0
22.06.2018 07:00:00 11,1 6,3 10,3 15,6 21,6 21,9 5 3 7 4 W 1025,8 42 46 0,0
22.06.2018 06:00:00 7,9 6,6 6,6 15,4 22,2 21,9 6 4 9 5 SSW 1025,7 40 0 0,0
22.06.2018 05:00:00 8,0 6,2 6,0 16,1 22,9 21,8 4 2 7 4 SSW 1025,7 41 0 0,0
22.06.2018 04:00:00 9,3 5,2 7,2 16,9 23,5 21,8 3 1 12 6 NE 1025,3 63 0 0,0
22.06.2018 03:00:00 11,5 4,5 8,0 17,8 24,2 21,8 4 2 12 7 NNW 1024,8 70 0 0,0
22.06.2018 02:00:00 12,6 4,0 9,7 18,7 25,0 21,8 8 4 12 7 NNW 1024,6 58 0 0,0
22.06.2018 01:00:00 13,8 2,9 11,8 19,6 25,8 21,8 11 6 22 12 N 1024,2 68 0 0,0
22.06.2018 00:00:00 14,9 2,7 13,5 20,8 26,7 21,7 18 10 37 20 N 1023,8 62 0 0,0
21.06.2018 23:00:00 15,9 3,1 14,7 22,4 27,7 21,7 23 12 44 24 NNE 1022,8 59 0 0,0
21.06.2018 22:00:00 17,3 3,4 16,2 24,6 28,5 21,7 29 15 48 26 NNE 1021,5 49 13 0,0
21.06.2018 21:00:00 19,4 4,1 19,5 27,5 29,2 21,7 25 13 46 25 NNE 1020,0 41 29 0,0
21.06.2018 20:00:00 20,8 5,6 21,2 29,9 29,5 21,7 27 14 41 22 NNE 1018,6 39 20 0,0
21.06.2018 19:00:00 24,0 10,2 26,5 32,2 29,6 21,7 18 10 29 16 NNW 1017,5 51 55 0,0
21.06.2018 18:00:00 24,9 9,8 27,4 32,4 29,7 21,6 19 10 34 19 WNW 1017,0 36 26 0,0
21.06.2018 17:00:00 24,1 14,1 26,2 32,1 29,9 21,6 18 10 26 14 W 1017,0 56 4 0,0
21.06.2018 16:00:00 23,7 14,0 24,9 34,5 29,8 21,6 14 8 42 23 NW 1016,8 58 17 0,0
21.06.2018 15:00:00 25,5 12,0 27,7 37,7 29,0 21,6 28 15 44 24 W 1016,2 24 56 0,0
21.06.2018 14:00:00 27,1 12,6 31,6 36,8 28,0 21,6 26 14 44 24 W 1016,1 16 54 0,0
21.06.2018 13:00:00 27,0 12,8 30,3 34,5 27,1 21,5 22 12 38 21 W 1016,2 25 58 0,0
21.06.2018 12:00:00 25,7 13,0 28,2 32,8 26,2 21,5 24 13 36 19 W 1016,6 25 60 0,0
21.06.2018 11:00:00 24,9 13,7 27,4 30,6 25,5 21,5 16 9 35 19 W 1016,3 43 57 0,0
21.06.2018 10:00:00 24,2 15,2 26,3 28,1 24,9 21,4 16 9 29 16 WSW 1016,4 23 60 0,0
21.06.2018 09:00:00 22,6 15,7 24,3 25,0 24,7 21,4 19 10 29 16 SW 1016,3 19 50 0,0
21.06.2018 08:00:00 21,2 15,8 21,5 23,3 24,8 21,4 22 12 32 17 SW 1016,4 21 56 0,0
21.06.2018 07:00:00 19,9 17,1 19,6 22,1 25,1 21,3 8 5 15 8 SSW 1016,2 32 9 0,0
21.06.2018 06:00:00 18,9 17,2 18,4 21,8 25,6 21,3 11 6 17 9 SSW 1016,0 26 0 0,0
21.06.2018 05:00:00 17,9 16,3 17,0 22,2 26,1 21,3 8 5 13 7 SSW 1016,0 26 0 0,0
21.06.2018 04:00:00 17,3 16,4 15,7 22,9 26,7 21,2 5 3 8 4 SSW 1016,3 26 0 0,0
21.06.2018 03:00:00 17,6 16,6 16,9 23,8 27,3 21,2 5 3 6 3 S 1016,4 27 0 0,0
21.06.2018 02:00:00 18,3 17,2 17,2 24,7 28,0 21,2 3 1 4 2 SSW 1016,7 31 0 0,0
21.06.2018 01:00:00 19,3 17,4 18,2 25,7 28,7 21,2 4 2 10 5 SSW 1017,0 38 0 0,0
21.06.2018 00:00:00 20,1 18,0 18,9 27,0 29,5 21,2 2 1 6 3 SE 1017,2 35 0 0,0
20.06.2018 23:00:00 21,2 17,9 19,7 28,6 30,3 21,2 3 2 6 4 SW 1017,3 38 0 0,0
20.06.2018 22:00:00 23,2 17,9 22,4 30,7 31,0 21,2 5 3 8 4 SE 1016,9 70 12 0,0
20.06.2018 21:00:00 28,8 14,4 26,9 33,2 31,5 21,2 3 2 8 5 NNW 1016,6 70 56 0,0
20.06.2018 20:00:00 30,0 13,8 31,2 35,7 31,7 21,1 6 3 14 7 NNW 1016,8 70 60 0,0
20.06.2018 19:00:00 30,7 14,3 32,9 37,8 31,6 21,1 10 5 18 10 NNW 1017,1 50 60 0,0
20.06.2018 18:00:00 30,2 14,2 33,0 39,4 31,3 21,1 10 6 21 11 NNW 1017,4 41 60 0,0
20.06.2018 17:00:00 30,5 14,9 33,7 40,4 30,6 21,1 13 7 24 13 NW 1017,9 30 60 0,0
20.06.2018 16:00:00 29,6 14,7 34,4 40,7 29,6 21,1 10 6 21 11 NNW 1018,3 47 60 0,0
20.06.2018 15:00:00 29,6 15,7 34,6 40,2 28,4 21,1 9 5 22 12 NW 1018,9 17 60 0,0
20.06.2018 14:00:00 28,8 15,9 34,5 38,7 27,1 21,1 9 5 19 10 NW 1019,6 40 60 0,0
20.06.2018 13:00:00 27,2 15,8 32,6 36,4 25,8 21,1 11 6 21 11 NNW 1020,4 32 60 0,0
20.06.2018 12:00:00 26,8 15,7 32,0 33,8 24,5 21,1 10 5 15 8 N 1020,8 43 60 0,0
20.06.2018 11:00:00 25,5 16,2 29,5 30,2 23,4 21,1 8 4 17 9 ENE 1021,2 34 60 0,0
20.06.2018 10:00:00 23,5 15,6 26,4 26,5 22,7 21,0 10 5 19 11 ENE 1021,6 30 60 0,0
20.06.2018 09:00:00 21,7 15,4 24,2 23,2 22,4 21,0 13 7 20 11 NNE 1022,0 33 60 0,0
20.06.2018 08:00:00 19,4 14,9 21,2 20,7 22,4 21,0 12 7 16 9 NNE 1022,2 32 60 0,0
20.06.2018 07:00:00 17,4 14,9 16,9 19,1 22,7 21,0 10 5 14 8 NNE 1022,3 25 46 0,0
20.06.2018 06:00:00 16,0 14,6 15,0 18,9 23,1 21,0 10 5 13 7 NNE 1022,6 25 0 0,0
20.06.2018 05:00:00 15,9 14,7 14,6 19,3 23,6 20,9 8 5 11 6 NNE 1022,8 24 0 0,0
20.06.2018 04:00:00 14,5 14,0 13,3 19,9 24,2 20,9 6 3 7 4 NNE 1023,2 20 0 0,0
20.06.2018 03:00:00 14,9 14,2 13,7 20,7 24,8 20,9 3 2 4 2 NNE 1023,4 18 0 0,0
20.06.2018 02:00:00 15,6 14,9 14,0 21,5 25,4 20,9 0 0 5 3 N 1023,5 27 0 0,0
20.06.2018 01:00:00 16,2 15,1 14,9 22,5 26,0 20,9 2 1 4 2 ESE 1023,5 29 0 0,0
20.06.2018 00:00:00 16,7 15,5 15,6 23,6 26,7 20,9 0 0 5 3 N 1023,5 35 0 0,0
19.06.2018 23:00:00 17,9 15,9 17,0 25,0 27,5 20,9 4 2 10 5 E 1023,4 30 0 0,0
19.06.2018 22:00:00 20,8 15,9 19,0 26,7 28,2 20,9 7 4 13 7 NE 1023,1 58 13 0,0
19.06.2018 21:00:00 23,5 15,4 22,7 28,7 28,8 20,9 4 2 10 5 N 1022,8 61 21 0,0
19.06.2018 20:00:00 24,2 15,7 23,8 31,2 29,1 20,9 7 4 17 9 NNW 1022,9 53 33 0,0
19.06.2018 19:00:00 25,7 15,0 27,9 34,2 29,0 20,9 13 7 19 11 N 1022,9 46 54 0,0
19.06.2018 18:00:00 25,9 14,7 30,0 36,5 28,5 20,9 9 5 17 9 NNW 1023,1 41 59 0,0
19.06.2018 17:00:00 25,4 14,3 27,3 36,7 27,6 20,9 7 4 22 12 W 1023,2 34 48 0,0
19.06.2018 16:00:00 25,7 14,3 28,1 36,7 26,6 20,9 11 6 21 11 SW 1023,5 47 58 0,0
19.06.2018 15:00:00 25,5 14,7 29,0 33,5 25,7 20,9 11 6 24 13 WSW 1023,9 62 30 0,0
19.06.2018 14:00:00 24,3 14,5 27,0 32,4 24,9 20,9 12 7 25 14 SW 1024,2 33 26 0,0
19.06.2018 13:00:00 24,2 15,2 27,8 31,6 23,9 20,9 15 8 24 13 WSW 1024,4 56 45 0,0
19.06.2018 12:00:00 23,0 15,0 26,4 28,1 23,1 20,9 13 7 32 17 WSW 1024,6 40 25 0,0
19.06.2018 11:00:00 22,0 15,1 23,8 27,0 22,3 20,9 13 7 25 13 SW 1024,8 41 32 0,0
19.06.2018 10:00:00 21,5 14,9 23,1 25,0 21,7 20,9 16 8 26 14 SW 1025,0 41 56 0,0
19.06.2018 09:00:00 20,1 14,7 22,0 21,6 21,4 20,8 15 8 22 12 SW 1025,1 26 29 0,0
19.06.2018 08:00:00 18,5 15,0 19,1 19,5 21,4 20,8 9 5 16 9 SW 1024,7 40 7 0,0
19.06.2018 07:00:00 17,2 14,5 17,2 18,5 21,7 20,8 10 5 14 8 SW 1024,6 37 33 0,0
19.06.2018 06:00:00 15,3 13,9 14,4 18,1 22,1 20,8 7 4 10 6 SW 1024,5 29 0 0,0
19.06.2018 05:00:00 14,9 13,7 13,5 18,4 22,5 20,8 7 4 13 7 SSW 1024,3 32 0 0,0
19.06.2018 04:00:00 15,3 13,8 14,2 19,0 23,0 20,8 8 4 13 7 SSW 1024,1 32 0 0,0
19.06.2018 03:00:00 15,8 14,2 14,7 19,9 23,5 20,8 7 4 11 6 SW 1023,9 44 0 0,0
19.06.2018 02:00:00 16,4 14,6 16,0 20,7 23,9 20,8 8 4 10 5 WSW 1023,7 36 0 0,0
19.06.2018 01:00:00 16,6 14,3 16,5 21,2 24,4 20,8 6 4 9 5 SSW 1023,5 52 0 0,0
19.06.2018 00:00:00 15,4 14,3 14,6 21,6 25,0 20,8 5 3 6 3 SSW 1023,7 37 0 0,0
18.06.2018 23:00:00 16,5 14,4 15,2 22,7 25,6 20,8 4 2 7 4 SSE 1023,3 45 0 0,0
18.06.2018 22:00:00 18,0 14,6 16,4 24,3 26,2 20,8 4 2 7 4 SW 1022,8 14 12 0,0
18.06.2018 21:00:00 21,4 13,0 20,1 26,2 26,6 20,8 5 3 9 5 W 1022,3 70 45 0,0
18.06.2018 20:00:00 22,2 12,4 22,0 27,9 26,9 20,8 5 3 16 9 WNW 1022,2 69 4 0,0
18.06.2018 19:00:00 22,7 12,4 23,8 29,5 27,0 20,8 8 5 16 9 NW 1022,3 70 3 0,0
18.06.2018 18:00:00 23,1 12,7 24,5 31,0 26,8 20,8 10 6 16 9 W 1022,2 66 5 0,0
18.06.2018 17:00:00 22,8 11,9 24,3 32,2 26,4 20,8 13 7 22 12 W 1022,3 39 18 0,0
18.06.2018 16:00:00 22,7 11,2 24,7 31,6 26,0 20,8 14 8 24 13 W 1022,5 22 6 0,0

tt = temperature
td = dewpoint
tt 5cm = temperature 5cm
tt -5cm = temperature -5cm
tt -20cm = temperature -20cm
tt -100cm = temperature -100cm
ff = wind speed
fx = gusts
dd = wind direction
ppp = reduced air pressure
vv = visibility
sd = sunshine duration
rr = precipitation

Next stations